Location: Burbank
(38.7788°N, 114.0429°W)
Time: 21:42:24
(UTC+00:00)

S-56A Canister/Altair - Pass Details

Date: 14 May 2026
Orbit: 632 x 2484 km, 38.9° (Epoch: 8 June)

Event Time Altitude Azimuth Distance (km) Brightness Sun altitude
Rises 02:50:31 0° 213° (SSW) 3,244 10.8 -2.7°
Reaches altitude 10° 02:53:40 10° 196° (SSW) 2,149 9.7 -3.2°
Maximum altitude 02:57:06 20° 149° (SSE) 1,489 8.5 -3.8°
Drops below altitude 10° 03:00:21 10° 101° (ESE) 2,005 9.1 -4.4°
Enters shadow 03:02:56 - 85° (E) 2,873 10.0 -4.8°
Sets 03:03:09 0° 84° (E) 2,954 - -4.9°
